Joplin, MO

7:12 PM CDT on May 22, 2018 (GMT -0500)
Joplin Regional

Weather History for KJLN - May, 2013

Change the Weather History Date:

Wednesday, May 29, 2013

  Actual Average Record
Temperature  
Mean Temperature 72 °F 70 °F  
Max Temperature 81 °F 81 °F 94 °F (1982)
Min Temperature 63 °F 60 °F 40 °F (1984)
Degree Days  
Heating Degree Days 0 1  
Month to date heating degree days 142 64  
Since 1 July heating degree days 4246 4067  
Cooling Degree Days 7 6  
Month to date cooling degree days 99 113  
Year to date cooling degree days 129 167  
Growing Degree Days 22 (Base 50)    
Moisture  
Dew Point 63 °F    
Average Humidity 68    
Maximum Humidity 73    
Minimum Humidity 62    
Precipitation  
Precipitation 0.24 in 0.18 in 1.35 in (1960)
Month to date precipitation 5.01 5.34  
Year to date precipitation 19.51 17.58  
Snow  
Snow 0.00 in - - ()
Month to date snowfall 0.0  
Snow Depth 0.00 in    
Sea Level Pressure  
Sea Level Pressure 29.79 in    
Wind  
Wind Speed 16 mph (South)    
Max Wind Speed 30 mph    
Max Gust Speed 36 mph    
Visibility 10 miles    
Events Thunderstorm    
T = Trace of Precipitation, MM = Missing Value Source: NWS Daily Summary

Daily Weather History Graph

Daily Weather History Graph

Search for Another Location

Airport or City:

Astronomy

May. 29, 2013 Rise Set
Actual Time 6:00 AM CDT 8:30 PM CDT
Civil Twilight 5:30 AM CDT 9:00 PM CDT
Nautical Twilight 4:53 AM CDT 9:38 PM CDT
Astronomical Twilight 4:11 AM CDT 10:19 PM CDT
Moon No Moon Rise 10:57 AM CDT (5/29)
Length of Visible Light 15h 30m
Length of Day
14h 30m
Waning Gibbous, 73% of the Moon is Illuminated
May 29
Waning Gibbous
May 31
Last Quarter
Jun 8
New
Jun 16
First Quarter
Jun 23
Full

Hourly Weather History & Observations

Time (CDT) Temp. Dew Point Humidity Pressure Visibility Wind Dir Wind Speed Gust Speed Precip Events Conditions
12:53 AM 71.1 °F 62.1 °F 73% 29.82 in 10.0 mi South 8.1 mph - N/A   Clear
1:53 AM 72.0 °F 63.0 °F 73% 29.80 in 10.0 mi SSE 13.8 mph 20.7 mph N/A   Clear
2:53 AM 72.0 °F 63.0 °F 73% 29.80 in 10.0 mi South 13.8 mph - N/A   Clear
3:53 AM 73.0 °F 63.0 °F 71% 29.81 in 10.0 mi South 15.0 mph - N/A   Clear
4:53 AM 72.0 °F 63.0 °F 73% 29.82 in 10.0 mi South 12.7 mph - N/A   Clear
5:53 AM 72.0 °F 63.0 °F 73% 29.83 in 10.0 mi South 15.0 mph - N/A   Partly Cloudy
6:53 AM 72.0 °F 62.1 °F 71% 29.83 in 10.0 mi South 16.1 mph 24.2 mph N/A   Partly Cloudy
7:53 AM 73.9 °F 64.0 °F 71% 29.83 in 10.0 mi South 15.0 mph 29.9 mph N/A   Clear
8:53 AM 73.9 °F 64.0 °F 71% 29.83 in 10.0 mi South 19.6 mph 29.9 mph N/A   Clear
9:53 AM 77.0 °F 64.9 °F 66% 29.82 in 10.0 mi South 20.7 mph 26.5 mph N/A   Clear
10:53 AM 78.1 °F 64.9 °F 64% 29.82 in 10.0 mi South 19.6 mph 33.4 mph N/A   Clear
12:53 PM 79.0 °F 64.0 °F 60% 29.82 in 10.0 mi South 24.2 mph 33.4 mph N/A   Scattered Clouds
1:53 PM 78.1 °F 64.9 °F 64% 29.81 in 10.0 mi South 21.9 mph 29.9 mph N/A   Scattered Clouds
3:53 PM 77.0 °F 64.9 °F 66% 29.78 in 10.0 mi South 15.0 mph 21.9 mph N/A   Scattered Clouds
4:53 PM 78.1 °F 66.0 °F 66% 29.74 in 10.0 mi South 12.7 mph 24.2 mph N/A   Clear
5:53 PM 77.0 °F 64.9 °F 66% 29.71 in 10.0 mi SSE 16.1 mph 23.0 mph N/A   Overcast
6:53 PM 78.1 °F 66.0 °F 66% 29.70 in 10.0 mi SSE 11.5 mph 23.0 mph N/A   Clear
7:53 PM 75.9 °F 64.9 °F 69% 29.73 in 10.0 mi SSE 13.8 mph 18.4 mph N/A   Mostly Cloudy
8:53 PM 75.9 °F 64.9 °F 69% 29.73 in 10.0 mi SSE 12.7 mph 23.0 mph N/A   Mostly Cloudy
9:53 PM 75.9 °F 63.0 °F 64% 29.73 in 10.0 mi South 18.4 mph 25.3 mph N/A   Mostly Cloudy
10:53 PM 69.1 °F 57.0 °F 65% 29.77 in 10.0 mi WNW 13.8 mph - N/A Thunderstorm Overcast
11:19 PM 66.2 °F 57.2 °F 73% 29.81 in 10.0 mi WNW 8.1 mph - N/A Thunderstorm Overcast
11:40 PM 66.2 °F 59.0 °F 78% 29.80 in 10.0 mi WNW 5.8 mph - N/A   Overcast
11:53 PM 66.0 °F 59.0 °F 78% 29.78 in 10.0 mi West 5.8 mph - N/A   Overcast